Meteo Giornale » Osservazioni meteo Stati Uniti (USA) » Penn Yan Penn Yan
ore: 17:53 - Osservazioni Meteo Penn Yan Penn Yan
Lat. 42° 38' N Lon. 77° 2' W Alt. 275 metri s.l.m.
26 °C
Nuvoloso
Temp. 24 Ore
20 °C
28 °C
Nord
5.5 Km/h
Dew point 22 °C
Umidità 78 %
Visibilità 10 Km
Il sole sorge alle ore 06:33
Il sole tramonta alle ore 19:42
| Data e Ora | Cielo e Fenomeni | T °C | DP °C | Um. % | Pres. hPa | Vis. km | Vento km/h | |
|---|---|---|---|---|---|---|---|---|
| Oggi h: 17:53 | Nuvoloso | 26 | 22 | 78 | 1015 | 10 | N 5.5 | |
| Oggi h: 16:53 | Nuvoloso | 28 | 23 | 74 | 1015 | 10 | N 9.3 | |
| Oggi h: 15:53 | Molto Nuvoloso | 28 | 22 | 69 | 1015 | 10 | N 7.4 | |
| Oggi h: 14:53 | Molto Nuvoloso | 27 | 22 | 74 | 1015 | 10 | NO 13 | |
| Oggi h: 14:18 | Coperto | 27 | 22 | 74 | 1015 | 10 | NO 9.3 | |
| Oggi h: 13:53 | Coperto | 27 | 22 | 74 | 1015 | 10 | N 5.5 | |
| Oggi h: 12:53 | Molto Nuvoloso | 26 | 22 | 78 | 1014 | 10 | S/SO 9.3 | |
| Oggi h: 12:39 | Molto Nuvoloso | 26 | 22 | 78 | 1015 | 10 | O/SO 9.3 | |
| Oggi h: 12:12 | Nuvoloso | 26 | 22 | 78 | 1015 | 10 | O/SO 11.1 | |
| Oggi h: 11:53 | Coperto | 24 | 22 | 88 | 1015 | 10 | O/SO 7.4 | |
| Oggi h: 10:53 | Coperto | 23 | 21 | 88 | 1015 | 10 | N 0 | |
| Oggi h: 09:53 | Coperto | 22 | 21 | 94 | 1014 | 10 | S/SO 9.3 | |
| Oggi h: 09:02 | Coperto | 22 | 21 | 94 | 1015 | 11 | S/SO 9.3 | |
| Oggi h: 08:53 | Coperto | 22 | 21 | 94 | 1015 | 14 | SO 7.4 | |
| Oggi h: 07:53 | Foschia | 21 | 21 | 100 | 1015 | 8 | SO 7.4 | |
| Oggi h: 06:53 | Coperto | 21 | 20 | 94 | 1014 | 14 | SE 11.1 | |
| Oggi h: 06:36 | Pioggia Foschia | 21 | 20 | 94 | 1015 | 10 | N 5.5 | |
| Oggi h: 06:21 | Temporale | 21 | 20 | 94 | 1015 | 13 | NO 7.4 | |
| Oggi h: 06:02 | Temporale nelle vicinanze Pioggia | 21 | 20 | 94 | 1014 | 14 | S 20.3 | |
| Oggi h: 05:53 | Pioggia Foschia | 21 | 20 | 94 | 1014 | 10 | S 16.7 | |
| Oggi h: 05:44 | Coperto | 21 | 20 | 94 | 1015 | 10 | S 14.8 | |
| Oggi h: 05:37 | Pioggia Foschia | 21 | 20 | 94 | 1014 | 2 | S 13 | |
| Oggi h: 04:53 | Coperto | 21 | 20 | 94 | 1014 | 10 | SO 9.3 | |
| Oggi h: 03:53 | Coperto | 21 | 20 | 94 | 1015 | 10 | S/SO 11.1 | |
| Oggi h: 02:53 | Coperto | 21 | 19 | 88 | 1016 | 10 | O/SO 7.4 | |
| Oggi h: 01:53 | Coperto | 21 | 20 | 94 | 1016 | 13 | O/SO 7.4 | |
| Oggi h: 00:53 | Molto Nuvoloso | 20 | 20 | 100 | 1017 | 14 | SO 7.4 | |
| Ieri h: 23:53 | Foschia | 21 | 20 | 94 | 1016 | 8 | N 0 | |
| Ieri h: 22:53 | Poco Nuvoloso | 21 | 20 | 94 | 1017 | 10 | S/SO 13 | |
| Ieri h: 22:01 | Coperto | 21 | 20 | 94 | 1017 | 13 | O/SO 9.3 | |
| Ieri h: 21:53 | Foschia | 21 | 20 | 94 | 1017 | 10 | SO 9.3 | |
| Ieri h: 21:16 | Molto Nuvoloso | 21 | 20 | 94 | 1017 | 14 | S/SO 11.1 | |
| Ieri h: 20:53 | Nuvoloso | 21 | 20 | 94 | 1017 | 13 | S/SO 7.4 | |
| Ieri h: 20:46 | Molto Nuvoloso | 21 | 20 | 94 | 1017 | 13 | SO 9.3 | |
| Ieri h: 20:39 | Coperto | 21 | 20 | 94 | 1017 | 11 | S/SO 9.3 | |
| Ieri h: 20:31 | Coperto | 20 | 20 | 100 | 1017 | 13 | O/SO 7.4 | |
| Ieri h: 19:53 | Coperto | 21 | 20 | 94 | 1017 | 13 | N 5.5 | |
| Ieri h: 19:51 | Coperto | 21 | 20 | 94 | 1017 | 13 | N 5.5 | |
| Ieri h: 19:29 | Coperto | 21 | 20 | 94 | 1017 | 14 | S/SO 7.4 | |
| Ieri h: 19:17 | Coperto | 21 | 20 | 94 | 1017 | 11 | S/SO 7.4 | |
| Ieri h: 19:09 | Pioggia Foschia | 21 | 20 | 94 | 1017 | 8 | S 7.4 | |
| Ieri h: 19:02 | Pioggia Foschia | 21 | 20 | 94 | 1017 | 2 | N 5.5 | |
| Ieri h: 18:53 | Pioggia Foschia | 21 | 20 | 94 | 1017 | 5 | N 0 | |
| Ieri h: 18:51 | Pioggia Foschia | 21 | 20 | 94 | 1017 | 5 | N 0 | |
| Ieri h: 18:43 | Pioggia Foschia | 21 | 20 | 94 | 1017 | 2 | N 5.5 | |



